Lancaster, PA

10:42 AM EST on January 18, 2017 (GMT -0500)
Willow Acres | | Change Station
Active Advisory: Small Craft Advisory

Elev 120 ft 40.03 °N, 76.20 °W | Updated 28 seconds ago

Overcast
Overcast
43.2 °F
Feels Like 43 °F
N
3.0
Wind Variable Wind from WSW

Today
High -- | Low -- °F
--% Chance of Precip.
Yesterday
High -- | Low -- °F
Precip. -- in
Pressure 29.95 in
Visibility 3.0 miles
Clouds Few 400 ft
Mostly Cloudy 2700 ft
Overcast 6500 ft
Windchill 43 °F
Dew Point 40 °F
Humidity 91%
Rainfall 0.00 in
Snow Depth Not available.
7:23 AM 5:07 PM
Waning Gibbous, 62% visible
SPECI KLNS 181528Z 27005KT 3SM BR FEW004 BKN027 OVC065 05/05 A2995 RMK AO2 RAE08 P0000 T00500050
Pressure 29.95 in
Visibility 3.0 miles
Clouds Few 400 ft
Mostly Cloudy 2700 ft
Overcast 6500 ft
Windchill 43 °F
Dew Point 40 °F
Humidity 91%
Rainfall 0.00 in
Snow Depth Not available.
7:23 AM 5:07 PM
Waning Gibbous, 62% visible
SPECI KLNS 181528Z 27005KT 3SM BR FEW004 BKN027 OVC065 05/05 A2995 RMK AO2 RAE08 P0000 T00500050

Get Your Daily Forecast Email!

Thanks for signing up!

Be on the lookout for a verification email in your inbox.

You'll start receiving the daily forecast at 8 AM.

×

10-Day Weather Forecast

Almanac

Astronomy

Jan. 18, 2017 Rise Set
Actual Time
Civil Twilight
Nautical Twilight
Astronomical Twilight
Moon
Length of Visible Light
Length of Day
Tomorrow will be .
, % of the Moon is Illuminated

Today's Extremes

State Highs State Lows

Community

WunderPhotos

Upload Photos

1,962,540 photos uploaded!

WunderBlog® & News

Nearby

Air Quality

  Air Quality AQ Index Pollutant
Not available.

Snow Depth

Station Depth Elevation

Earthquake Activity

City Distance Mag. Time & Date
Minimum magnitude displayed is 2.5.

Coastal Water Temperatures

Place Temperature

Stations

Nearby Weather Stations

Station Location Temp. Windchill Dew Point Humidity Wind Precip. Elev Updated Type
                   

Watches & Warnings

Small Craft Advisory
Issued: 9:27 AM EST Jan. 18, 2017 – National Weather Service

... Small Craft Advisory now in effect until 8 PM EST this
evening...

* winds... 18 to 33 knots within the Small Craft Advisory.

Precautionary/preparedness actions...

A Small Craft Advisory means winds of 18 to 33 knots are imminent
or occurring. Boaters operating smaller vessels should avoid
navigating in these conditions.